Time,TemperatureF,DewpointF,PressureIn,WindDirection,WindDirectionDegrees,WindSpeedMPH,WindSpeedGustMPH,Humidity,HourlyPrecipIn,Conditions,Clouds,dailyrainin,SoftwareType,DateUTC
2013-08-12 00:01:00,77.5,73.7,30.05,North,360,2.0,4.0,88,0.00,,---,0.00,VWS V14.01,2013-08-12 04:01:00,
2013-08-12 00:04:00,77.5,73.7,30.05,North,360,1.0,4.0,88,0.00,,---,0.00,VWS V14.01,2013-08-12 04:04:00,
2013-08-12 00:09:00,77.3,73.5,30.05,North,360,3.0,4.0,88,0.00,,---,0.00,VWS V14.01,2013-08-12 04:09:00,
2013-08-12 00:14:00,77.1,73.6,30.05,North,360,2.0,4.0,89,0.00,,---,0.00,VWS V14.01,2013-08-12 04:14:00,
2013-08-12 00:19:00,76.9,73.4,30.05,North,360,2.0,4.0,89,0.00,,---,0.00,VWS V14.01,2013-08-12 04:19:00,
2013-08-12 00:24:00,76.8,73.3,30.05,North,360,2.0,4.0,89,0.00,,---,0.00,VWS V14.01,2013-08-12 04:24:00,
2013-08-12 00:29:00,76.7,73.6,30.04,North,360,1.0,4.0,90,0.00,,---,0.00,VWS V14.01,2013-08-12 04:29:00,
2013-08-12 00:34:00,76.7,73.6,30.04,North,360,1.0,4.0,90,0.00,,---,0.00,VWS V14.01,2013-08-12 04:34:00,
2013-08-12 00:39:00,76.6,73.4,30.04,North,360,0.0,4.0,90,0.00,,---,0.00,VWS V14.01,2013-08-12 04:39:00,
2013-08-12 00:45:00,76.4,73.2,30.04,North,360,0.0,4.0,90,0.00,,---,0.00,VWS V14.01,2013-08-12 04:45:00,
2013-08-12 00:50:00,76.2,73.1,30.04,North,360,0.0,4.0,90,0.00,,---,0.00,VWS V14.01,2013-08-12 04:50:00,
2013-08-12 00:55:00,76.0,72.9,30.04,North,360,0.0,4.0,90,0.00,,---,0.00,VWS V14.01,2013-08-12 04:55:00,
2013-08-12 01:00:00,75.8,73.0,30.04,North,360,0.0,4.0,91,0.00,,---,0.00,VWS V14.01,2013-08-12 05:00:00,
2013-08-12 01:05:00,75.7,72.9,30.04,North,360,0.0,0.0,91,0.00,,---,0.00,VWS V14.01,2013-08-12 05:05:00,
2013-08-12 01:10:00,75.6,73.1,30.04,North,360,0.0,0.0,92,0.00,,---,0.00,VWS V14.01,2013-08-12 05:10:00,
2013-08-12 01:15:00,75.5,73.0,30.04,North,360,3.0,4.0,92,0.00,,---,0.00,VWS V14.01,2013-08-12 05:15:00,
2013-08-12 01:20:00,75.7,73.2,30.04,North,360,3.0,5.0,92,0.00,,---,0.00,VWS V14.01,2013-08-12 05:20:00,
2013-08-12 01:25:00,75.7,73.2,30.04,North,360,3.0,5.0,92,0.00,,---,0.00,VWS V14.01,2013-08-12 05:25:00,
2013-08-12 01:30:00,75.7,73.2,30.04,North,360,1.0,5.0,92,0.00,,---,0.00,VWS V14.01,2013-08-12 05:30:00,
2013-08-12 01:35:00,75.6,73.1,30.04,North,360,3.0,5.0,92,0.00,,---,0.00,VWS V14.01,2013-08-12 05:35:00,
2013-08-12 01:41:00,75.6,73.1,30.04,North,360,2.0,5.0,92,0.00,,---,0.00,VWS V14.01,2013-08-12 05:41:00,
2013-08-12 01:46:00,75.5,73.0,30.04,North,360,0.0,5.0,92,0.00,,---,0.00,VWS V14.01,2013-08-12 05:46:00,
2013-08-12 01:51:00,75.5,73.0,30.04,North,360,0.0,5.0,92,0.00,,---,0.00,VWS V14.01,2013-08-12 05:51:00,
2013-08-12 01:56:00,75.3,72.8,30.04,North,360,0.0,5.0,92,0.00,,---,0.00,VWS V14.01,2013-08-12 05:56:00,
2013-08-12 02:01:00,75.1,72.6,30.04,North,360,0.0,5.0,92,0.00,,---,0.00,VWS V14.01,2013-08-12 06:01:00,
2013-08-12 02:06:00,75.0,72.5,30.03,North,360,0.0,0.0,92,0.00,,---,0.00,VWS V14.01,2013-08-12 06:06:00,
2013-08-12 02:11:00,74.9,72.7,30.03,North,360,0.0,0.0,93,0.00,,---,0.00,VWS V14.01,2013-08-12 06:11:00,
2013-08-12 02:16:00,74.8,72.6,30.03,North,360,1.0,3.0,93,0.00,,---,0.00,VWS V14.01,2013-08-12 06:16:00,
2013-08-12 02:21:00,74.9,72.7,30.03,North,360,3.0,4.0,93,0.00,,---,0.00,VWS V14.01,2013-08-12 06:21:00,
2013-08-12 02:26:00,74.9,72.7,30.03,North,360,2.0,4.0,93,0.00,,---,0.00,VWS V14.01,2013-08-12 06:26:00,
2013-08-12 02:32:00,74.8,73.0,30.03,North,360,2.0,4.0,94,0.00,,---,0.00,VWS V14.01,2013-08-12 06:32:00,
2013-08-12 02:37:00,74.6,72.8,30.02,North,360,3.0,4.0,94,0.00,,---,0.00,VWS V14.01,2013-08-12 06:37:00,
2013-08-12 02:42:00,74.5,72.7,30.02,North,360,3.0,6.0,94,0.00,,---,0.00,VWS V14.01,2013-08-12 06:42:00,
2013-08-12 02:47:00,74.3,72.8,30.02,North,360,5.0,6.0,95,0.00,,---,0.00,VWS V14.01,2013-08-12 06:47:00,
2013-08-12 02:52:00,74.2,72.7,30.02,North,360,3.0,7.0,95,0.00,,---,0.00,VWS V14.01,2013-08-12 06:52:00,
2013-08-12 02:57:00,74.2,72.7,30.02,North,360,3.0,7.0,95,0.00,,---,0.00,VWS V14.01,2013-08-12 06:57:00,
2013-08-12 03:02:00,74.2,72.7,30.02,North,360,5.0,7.0,95,0.00,,---,0.00,VWS V14.01,2013-08-12 07:02:00,
2013-08-12 03:07:00,74.1,72.6,30.02,North,360,4.0,5.0,95,0.00,,---,0.00,VWS V14.01,2013-08-12 07:07:00,
2013-08-12 03:12:00,74.0,72.5,30.02,North,360,4.0,5.0,95,0.00,,---,0.00,VWS V14.01,2013-08-12 07:12:00,
2013-08-12 03:17:00,73.9,72.4,30.02,North,360,4.0,6.0,95,0.00,,---,0.00,VWS V14.01,2013-08-12 07:17:00,
2013-08-12 03:22:00,73.8,72.3,30.02,North,360,6.0,7.0,95,0.00,,---,0.00,VWS V14.01,2013-08-12 07:22:00,
2013-08-12 03:27:00,73.7,72.2,30.02,North,360,5.0,7.0,95,0.00,,---,0.00,VWS V14.01,2013-08-12 07:27:00,
2013-08-12 03:32:00,73.7,72.5,30.02,North,360,5.0,7.0,96,0.00,,---,0.00,VWS V14.01,2013-08-12 07:32:00,
2013-08-12 03:37:00,73.6,72.4,30.02,North,360,5.0,7.0,96,0.00,,---,0.00,VWS V14.01,2013-08-12 07:37:00,
2013-08-12 03:42:00,73.6,72.4,30.02,North,360,4.0,7.0,96,0.00,,---,0.00,VWS V14.01,2013-08-12 07:42:00,
2013-08-12 03:47:00,73.6,72.4,30.02,North,360,4.0,7.0,96,0.00,,---,0.00,VWS V14.01,2013-08-12 07:47:00,
2013-08-12 03:52:00,73.6,72.4,30.03,North,360,5.0,7.0,96,0.00,,---,0.00,VWS V14.01,2013-08-12 07:52:00,
2013-08-12 03:57:00,73.5,72.3,30.03,North,360,4.0,7.0,96,0.00,,---,0.00,VWS V14.01,2013-08-12 07:57:00,
2013-08-12 04:03:00,73.5,72.3,30.02,North,360,4.0,7.0,96,0.00,,---,0.00,VWS V14.01,2013-08-12 08:03:00,
2013-08-12 04:08:00,73.4,72.2,30.03,North,360,2.0,5.0,96,0.00,,---,0.00,VWS V14.01,2013-08-12 08:08:00,
2013-08-12 04:13:00,73.3,72.1,30.03,North,360,3.0,5.0,96,0.00,,---,0.00,VWS V14.01,2013-08-12 08:13:00,
2013-08-12 04:18:00,73.2,72.0,30.03,North,360,3.0,5.0,96,0.00,,---,0.00,VWS V14.01,2013-08-12 08:18:00,
2013-08-12 04:23:00,73.2,72.0,30.03,North,360,3.0,5.0,96,0.00,,---,0.00,VWS V14.01,2013-08-12 08:23:00,
2013-08-12 04:28:00,73.1,71.9,30.03,North,360,0.0,5.0,96,0.00,,---,0.00,VWS V14.01,2013-08-12 08:28:00,
2013-08-12 04:33:00,73.0,71.8,30.03,North,360,1.0,5.0,96,0.00,,---,0.00,VWS V14.01,2013-08-12 08:33:00,
2013-08-12 04:38:00,73.0,72.1,30.02,North,360,1.0,5.0,97,0.00,,---,0.00,VWS V14.01,2013-08-12 08:38:00,
2013-08-12 04:43:00,72.9,71.7,30.02,North,360,0.0,5.0,96,0.00,,---,0.00,VWS V14.01,2013-08-12 08:43:00,
2013-08-12 04:48:00,72.8,71.6,30.02,North,360,0.0,5.0,96,0.00,,---,0.00,VWS V14.01,2013-08-12 08:48:00,
2013-08-12 04:53:00,72.6,71.4,30.02,North,360,0.0,5.0,96,0.00,,---,0.00,VWS V14.01,2013-08-12 08:53:00,
2013-08-12 04:59:00,72.6,71.7,30.02,North,360,3.0,5.0,97,0.00,,---,0.00,VWS V14.01,2013-08-12 08:59:00,
2013-08-12 05:04:00,72.6,71.7,30.02,North,360,2.0,4.0,97,0.00,,---,0.00,VWS V14.01,2013-08-12 09:04:00,
2013-08-12 05:09:00,72.6,71.7,30.03,North,360,2.0,4.0,97,0.00,,---,0.00,VWS V14.01,2013-08-12 09:09:00,
2013-08-12 05:14:00,72.4,71.5,30.02,North,360,0.0,4.0,97,0.00,,---,0.00,VWS V14.01,2013-08-12 09:14:00,
2013-08-12 05:19:00,72.3,71.4,30.02,North,360,2.0,4.0,97,0.00,,---,0.00,VWS V14.01,2013-08-12 09:19:00,
2013-08-12 05:24:00,72.3,71.4,30.03,North,360,3.0,4.0,97,0.00,,---,0.00,VWS V14.01,2013-08-12 09:24:00,
2013-08-12 05:29:00,72.3,71.4,30.02,North,360,4.0,5.0,97,0.00,,---,0.00,VWS V14.01,2013-08-12 09:29:00,
2013-08-12 05:34:00,72.3,71.4,30.02,North,360,4.0,6.0,97,0.00,,---,0.00,VWS V14.01,2013-08-12 09:34:00,
2013-08-12 05:39:00,72.3,71.4,30.03,North,360,5.0,6.0,97,0.00,,---,0.00,VWS V14.01,2013-08-12 09:39:00,
2013-08-12 05:44:00,72.3,71.4,30.02,North,360,3.0,6.0,97,0.00,,---,0.00,VWS V14.01,2013-08-12 09:44:00,
2013-08-12 05:49:00,72.2,71.3,30.03,North,360,4.0,6.0,97,0.00,,---,0.00,VWS V14.01,2013-08-12 09:49:00,
2013-08-12 05:54:00,72.2,71.3,30.03,North,360,4.0,6.0,97,0.00,,---,0.00,VWS V14.01,2013-08-12 09:54:00,
2013-08-12 05:59:00,72.2,71.3,30.03,North,360,4.0,6.0,97,0.00,,---,0.00,VWS V14.01,2013-08-12 09:59:00,
2013-08-12 06:04:00,72.2,71.3,30.02,North,360,3.0,4.0,97,0.00,,---,0.00,VWS V14.01,2013-08-12 10:04:00,
2013-08-12 06:09:00,72.1,71.2,30.03,North,360,4.0,5.0,97,0.00,,---,0.00,VWS V14.01,2013-08-12 10:09:00,
2013-08-12 06:15:00,72.1,71.2,30.03,North,360,1.0,7.0,97,0.00,,---,0.00,VWS V14.01,2013-08-12 10:15:00,
2013-08-12 06:20:00,72.2,71.3,30.04,North,360,1.0,7.0,97,0.00,,---,0.00,VWS V14.01,2013-08-12 10:20:00,
2013-08-12 06:25:00,72.3,71.4,30.04,North,360,2.0,7.0,97,0.00,,---,0.00,VWS V14.01,2013-08-12 10:25:00,
2013-08-12 06:30:00,72.4,71.5,30.03,North,360,3.0,7.0,97,0.00,,---,0.00,VWS V14.01,2013-08-12 10:30:00,
2013-08-12 06:35:00,72.5,71.6,30.04,North,360,1.0,7.0,97,0.00,,---,0.00,VWS V14.01,2013-08-12 10:35:00,
2013-08-12 06:40:00,72.5,71.6,30.04,North,360,8.0,8.0,97,0.00,,---,0.00,VWS V14.01,2013-08-12 10:40:00,
2013-08-12 06:45:00,72.5,71.3,30.04,North,360,5.0,8.0,96,0.00,,---,0.00,VWS V14.01,2013-08-12 10:45:00,
2013-08-12 06:50:00,72.5,71.3,30.04,North,360,5.0,8.0,96,0.00,,---,0.00,VWS V14.01,2013-08-12 10:50:00,
2013-08-12 06:55:00,72.5,71.3,30.04,North,360,3.0,8.0,96,0.00,,---,0.00,VWS V14.01,2013-08-12 10:55:00,
2013-08-12 07:00:00,72.4,71.2,30.04,North,360,4.0,8.0,96,0.00,,---,0.00,VWS V14.01,2013-08-12 11:00:00,
2013-08-12 07:05:00,72.3,71.1,30.05,North,360,6.0,6.0,96,0.00,,---,0.00,VWS V14.01,2013-08-12 11:05:00,
2013-08-12 07:10:00,72.2,71.0,30.05,North,360,3.0,6.0,96,0.00,,---,0.00,VWS V14.01,2013-08-12 11:10:00,
2013-08-12 07:15:00,72.1,70.9,30.05,North,360,3.0,6.0,96,0.00,,---,0.00,VWS V14.01,2013-08-12 11:15:00,
2013-08-12 07:20:00,72.2,71.0,30.05,North,360,3.0,6.0,96,0.00,,---,0.00,VWS V14.01,2013-08-12 11:20:00,
2013-08-12 07:25:00,72.4,71.2,30.05,North,360,5.0,6.0,96,0.00,,---,0.00,VWS V14.01,2013-08-12 11:25:00,
2013-08-12 07:30:00,72.5,71.3,30.05,North,360,2.0,6.0,96,0.00,,---,0.00,VWS V14.01,2013-08-12 11:30:00,
2013-08-12 07:36:00,72.7,71.2,30.05,North,360,4.0,7.0,95,0.00,,---,0.00,VWS V14.01,2013-08-12 11:36:00,
2013-08-12 07:41:00,72.9,71.4,30.04,North,360,8.0,8.0,95,0.00,,---,0.00,VWS V14.01,2013-08-12 11:41:00,
2013-08-12 07:46:00,73.2,71.4,30.04,North,360,3.0,8.0,94,0.00,,---,0.00,VWS V14.01,2013-08-12 11:46:00,
2013-08-12 07:51:00,73.4,71.3,30.05,North,360,4.0,8.0,93,0.00,,---,0.00,VWS V14.01,2013-08-12 11:51:00,
2013-08-12 07:56:00,73.7,71.6,30.05,North,360,3.0,8.0,93,0.00,,---,0.00,VWS V14.01,2013-08-12 11:56:00,
2013-08-12 08:01:00,74.0,71.5,30.05,North,360,1.0,8.0,92,0.00,,---,0.00,VWS V14.01,2013-08-12 12:01:00,
2013-08-12 08:06:00,74.2,71.7,30.05,North,360,2.0,6.0,92,0.00,,---,0.00,VWS V14.01,2013-08-12 12:06:00,
2013-08-12 08:11:00,74.3,71.5,30.05,North,360,5.0,7.0,91,0.00,,---,0.00,VWS V14.01,2013-08-12 12:11:00,
2013-08-12 08:16:00,74.5,71.7,30.05,North,360,6.0,8.0,91,0.00,,---,0.00,VWS V14.01,2013-08-12 12:16:00,
2013-08-12 08:21:00,74.7,71.9,30.05,North,360,0.0,8.0,91,0.00,,---,0.00,VWS V14.01,2013-08-12 12:21:00,
2013-08-12 08:26:00,75.0,71.9,30.05,North,360,1.0,8.0,90,0.00,,---,0.00,VWS V14.01,2013-08-12 12:26:00,
2013-08-12 08:31:00,75.2,72.1,30.05,North,360,3.0,8.0,90,0.00,,---,0.00,VWS V14.01,2013-08-12 12:31:00,
2013-08-12 08:36:00,75.5,72.0,30.05,North,360,5.0,8.0,89,0.00,,---,0.00,VWS V14.01,2013-08-12 12:36:00,
2013-08-12 08:41:00,75.8,72.0,30.05,North,360,5.0,8.0,88,0.00,,---,0.00,VWS V14.01,2013-08-12 12:41:00,
2013-08-12 08:46:00,76.2,72.4,30.05,North,360,3.0,8.0,88,0.00,,---,0.00,VWS V14.01,2013-08-12 12:46:00,
2013-08-12 08:52:00,76.7,72.5,30.05,North,360,4.0,8.0,87,0.00,,---,0.00,VWS V14.01,2013-08-12 12:52:00,
2013-08-12 08:57:00,76.9,72.4,30.05,North,360,3.0,8.0,86,0.00,,---,0.00,VWS V14.01,2013-08-12 12:57:00,
2013-08-12 09:02:00,77.3,72.4,30.04,North,360,3.0,8.0,85,0.00,,---,0.00,VWS V14.01,2013-08-12 13:02:00,
2013-08-12 09:07:00,77.5,72.6,30.05,North,360,5.0,9.0,85,0.00,,---,0.00,VWS V14.01,2013-08-12 13:07:00,
2013-08-12 09:12:00,77.8,72.6,30.05,North,360,5.0,9.0,84,0.00,,---,0.00,VWS V14.01,2013-08-12 13:12:00,
2013-08-12 09:17:00,77.9,72.3,30.05,North,360,11.0,11.0,83,0.00,,---,0.00,VWS V14.01,2013-08-12 13:17:00,
2013-08-12 09:22:00,78.0,72.4,30.05,North,360,9.0,11.0,83,0.00,,---,0.00,VWS V14.01,2013-08-12 13:22:00,
2013-08-12 09:27:00,78.2,72.3,30.05,North,360,4.0,11.0,82,0.00,,---,0.00,VWS V14.01,2013-08-12 13:27:00,
2013-08-12 09:32:00,78.5,72.6,30.05,North,360,4.0,14.0,82,0.00,,---,0.00,VWS V14.01,2013-08-12 13:32:00,
2013-08-12 09:37:00,78.9,72.6,30.04,North,360,5.0,14.0,81,0.00,,---,0.00,VWS V14.01,2013-08-12 13:37:00,
2013-08-12 09:42:00,79.0,72.3,30.04,North,360,4.0,14.0,80,0.00,,---,0.00,VWS V14.01,2013-08-12 13:42:00,
2013-08-12 09:47:00,79.2,72.1,30.04,North,360,7.0,14.0,79,0.00,,---,0.00,VWS V14.01,2013-08-12 13:47:00,
2013-08-12 09:52:00,79.4,72.3,30.04,North,360,0.0,14.0,79,0.00,,---,0.00,VWS V14.01,2013-08-12 13:52:00,
2013-08-12 09:57:00,79.6,72.1,30.04,North,360,7.0,14.0,78,0.00,,---,0.00,VWS V14.01,2013-08-12 13:57:00,
2013-08-12 10:02:00,79.5,72.0,30.05,North,360,2.0,14.0,78,0.00,,---,0.00,VWS V14.01,2013-08-12 14:02:00,
2013-08-12 10:07:00,80.0,72.2,30.05,North,360,4.0,8.0,77,0.00,,---,0.00,VWS V14.01,2013-08-12 14:07:00,
2013-08-12 10:12:00,80.8,72.5,30.04,North,360,2.0,8.0,76,0.00,,---,0.00,VWS V14.01,2013-08-12 14:12:00,
2013-08-12 10:18:00,81.1,72.0,30.04,North,360,2.0,8.0,74,0.00,,---,0.00,VWS V14.01,2013-08-12 14:18:00,
2013-08-12 10:23:00,81.1,71.6,30.04,North,360,6.0,8.0,73,0.00,,---,0.00,VWS V14.01,2013-08-12 14:23:00,
2013-08-12 10:28:00,81.0,71.1,30.04,North,360,6.0,9.0,72,0.00,,---,0.00,VWS V14.01,2013-08-12 14:28:00,
2013-08-12 10:33:00,81.4,71.5,30.05,North,360,5.0,9.0,72,0.00,,---,0.00,VWS V14.01,2013-08-12 14:33:00,
2013-08-12 10:38:00,81.6,71.3,30.05,North,360,2.0,9.0,71,0.00,,---,0.00,VWS V14.01,2013-08-12 14:38:00,
2013-08-12 10:43:00,81.7,71.4,30.05,North,360,2.0,9.0,71,0.00,,---,0.00,VWS V14.01,2013-08-12 14:43:00,
2013-08-12 10:48:00,81.8,71.5,30.04,North,360,0.0,9.0,71,0.00,,---,0.00,VWS V14.01,2013-08-12 14:48:00,
2013-08-12 10:53:00,82.2,71.9,30.04,North,360,1.0,9.0,71,0.00,,---,0.00,VWS V14.01,2013-08-12 14:53:00,
2013-08-12 10:58:00,82.5,71.3,30.04,North,360,3.0,9.0,69,0.00,,---,0.00,VWS V14.01,2013-08-12 14:58:00,
2013-08-12 11:03:00,82.7,72.3,30.04,North,360,2.0,2.0,71,0.00,,---,0.00,VWS V14.01,2013-08-12 15:03:00,
2013-08-12 11:09:00,83.4,72.6,30.04,North,360,0.0,3.0,70,0.00,,---,0.00,VWS V14.01,2013-08-12 15:09:00,
2013-08-12 11:14:00,83.6,72.4,30.04,North,360,2.0,5.0,69,0.00,,---,0.00,VWS V14.01,2013-08-12 15:14:00,
2013-08-12 11:19:00,83.3,72.1,30.04,North,360,4.0,6.0,69,0.00,,---,0.00,VWS V14.01,2013-08-12 15:19:00,
2013-08-12 11:24:00,83.5,71.8,30.04,North,360,6.0,7.0,68,0.00,,---,0.00,VWS V14.01,2013-08-12 15:24:00,
2013-08-12 11:29:00,83.5,71.8,30.04,North,360,3.0,7.0,68,0.00,,---,0.00,VWS V14.01,2013-08-12 15:29:00,
2013-08-12 11:34:00,83.8,71.7,30.04,North,360,3.0,7.0,67,0.00,,---,0.00,VWS V14.01,2013-08-12 15:34:00,
2013-08-12 11:39:00,84.1,71.5,30.04,North,360,2.0,7.0,66,0.00,,---,0.00,VWS V14.01,2013-08-12 15:39:00,
2013-08-12 11:44:00,84.1,71.5,30.04,North,360,6.0,7.0,66,0.00,,---,0.00,VWS V14.01,2013-08-12 15:44:00,
2013-08-12 11:49:00,83.5,71.4,30.04,North,360,0.0,11.0,67,0.00,,---,0.00,VWS V14.01,2013-08-12 15:49:00,
2013-08-12 11:54:00,83.6,71.9,30.03,North,360,0.0,11.0,68,0.00,,---,0.00,VWS V14.01,2013-08-12 15:54:00,
2013-08-12 11:59:00,83.9,73.1,30.03,North,360,4.0,11.0,70,0.00,,---,0.00,VWS V14.01,2013-08-12 15:59:00,
2013-08-12 12:04:00,83.9,73.5,30.03,North,360,1.0,3.0,71,0.00,,---,0.00,VWS V14.01,2013-08-12 16:04:00,
2013-08-12 12:09:00,84.4,72.7,30.03,North,360,3.0,5.0,68,0.00,,---,0.00,VWS V14.01,2013-08-12 16:09:00,
2013-08-12 12:15:00,84.3,72.6,30.03,North,360,7.0,12.0,68,0.00,,---,0.00,VWS V14.01,2013-08-12 16:15:00,
2013-08-12 12:20:00,83.8,73.0,30.03,North,360,7.0,12.0,70,0.00,,---,0.00,VWS V14.01,2013-08-12 16:20:00,
2013-08-12 12:25:00,84.0,72.7,30.03,North,360,4.0,13.0,69,0.00,,---,0.00,VWS V14.01,2013-08-12 16:25:00,
2013-08-12 12:30:00,84.5,72.8,30.03,North,360,1.0,13.0,68,0.00,,---,0.00,VWS V14.01,2013-08-12 16:30:00,
2013-08-12 12:35:00,84.6,72.4,30.03,North,360,3.0,13.0,67,0.00,,---,0.00,VWS V14.01,2013-08-12 16:35:00,
2013-08-12 12:40:00,84.7,72.1,30.02,North,360,5.0,13.0,66,0.00,,---,0.00,VWS V14.01,2013-08-12 16:40:00,
2013-08-12 12:45:00,85.3,73.1,30.02,North,360,0.0,13.0,67,0.00,,---,0.00,VWS V14.01,2013-08-12 16:45:00,
2013-08-12 12:50:00,85.0,72.4,30.03,North,360,6.0,13.0,66,0.00,,---,0.00,VWS V14.01,2013-08-12 16:50:00,
2013-08-12 12:55:00,84.7,72.5,30.02,North,360,5.0,13.0,67,0.00,,---,0.00,VWS V14.01,2013-08-12 16:55:00,
2013-08-12 13:00:00,84.9,73.2,30.02,North,360,5.0,13.0,68,0.00,,---,0.00,VWS V14.01,2013-08-12 17:00:00,
2013-08-12 13:05:00,85.1,72.5,30.02,North,360,2.0,11.0,66,0.00,,---,0.00,VWS V14.01,2013-08-12 17:05:00,
2013-08-12 13:10:00,85.5,74.2,30.02,North,360,10.0,12.0,69,0.00,,---,0.00,VWS V14.01,2013-08-12 17:10:00,
2013-08-12 13:16:00,84.8,73.1,30.02,North,360,5.0,12.0,68,0.00,,---,0.00,VWS V14.01,2013-08-12 17:16:00,
2013-08-12 13:21:00,84.6,73.3,30.02,North,360,3.0,12.0,69,0.00,,---,0.00,VWS V14.01,2013-08-12 17:21:00,
2013-08-12 13:26:00,85.0,73.3,30.02,North,360,0.0,12.0,68,0.00,,---,0.00,VWS V14.01,2013-08-12 17:26:00,
2013-08-12 13:31:00,85.4,72.8,30.02,North,360,6.0,12.0,66,0.00,,---,0.00,VWS V14.01,2013-08-12 17:31:00,
2013-08-12 13:36:00,85.6,72.0,30.02,North,360,5.0,12.0,64,0.00,,---,0.00,VWS V14.01,2013-08-12 17:36:00,
2013-08-12 13:41:00,85.9,71.8,30.02,North,360,5.0,12.0,63,0.00,,---,0.00,VWS V14.01,2013-08-12 17:41:00,
2013-08-12 13:46:00,85.8,72.7,30.02,North,360,4.0,12.0,65,0.00,,---,0.00,VWS V14.01,2013-08-12 17:46:00,
2013-08-12 13:51:00,85.7,71.2,30.02,North,360,10.0,12.0,62,0.00,,---,0.00,VWS V14.01,2013-08-12 17:51:00,
2013-08-12 13:57:00,85.9,70.4,30.02,North,360,2.0,12.0,60,0.00,,---,0.00,VWS V14.01,2013-08-12 17:57:00,
2013-08-12 14:02:00,86.0,70.5,30.01,North,360,10.0,15.0,60,0.00,,---,0.00,VWS V14.01,2013-08-12 18:02:00,
2013-08-12 14:07:00,86.5,70.0,30.01,North,360,7.0,13.0,58,0.00,,---,0.00,VWS V14.01,2013-08-12 18:07:00,
2013-08-12 14:12:00,86.5,69.5,30.01,North,360,7.0,13.0,57,0.00,,---,0.00,VWS V14.01,2013-08-12 18:12:00,
2013-08-12 14:17:00,86.9,71.3,30.01,North,360,6.0,13.0,60,0.00,,---,0.00,VWS V14.01,2013-08-12 18:17:00,
2013-08-12 14:22:00,86.8,71.3,30.00,North,360,2.0,13.0,60,0.00,,---,0.00,VWS V14.01,2013-08-12 18:22:00,
2013-08-12 14:27:00,86.8,71.8,30.00,North,360,7.0,13.0,61,0.00,,---,0.00,VWS V14.01,2013-08-12 18:27:00,
2013-08-12 14:32:00,86.8,70.8,30.00,North,360,5.0,13.0,59,0.00,,---,0.00,VWS V14.01,2013-08-12 18:32:00,
2013-08-12 14:37:00,87.1,71.5,30.00,North,360,3.0,13.0,60,0.00,,---,0.00,VWS V14.01,2013-08-12 18:37:00,
2013-08-12 14:42:00,87.4,72.3,29.99,North,360,3.0,13.0,61,0.00,,---,0.00,VWS V14.01,2013-08-12 18:42:00,
2013-08-12 14:47:00,87.7,72.6,29.99,North,360,4.0,13.0,61,0.00,,---,0.00,VWS V14.01,2013-08-12 18:47:00,
2013-08-12 14:52:00,87.6,71.5,29.99,North,360,2.0,13.0,59,0.00,,---,0.00,VWS V14.01,2013-08-12 18:52:00,
2013-08-12 14:57:00,87.7,72.1,29.98,North,360,0.0,13.0,60,0.00,,---,0.00,VWS V14.01,2013-08-12 18:57:00,
2013-08-12 15:02:00,88.7,72.5,29.99,North,360,2.0,13.0,59,0.00,,---,0.00,VWS V14.01,2013-08-12 19:02:00,
2013-08-12 15:08:00,89.0,71.3,29.98,North,360,6.0,6.0,56,0.00,,---,0.00,VWS V14.01,2013-08-12 19:08:00,
2013-08-12 15:13:00,88.4,70.7,29.98,North,360,4.0,11.0,56,0.00,,---,0.00,VWS V14.01,2013-08-12 19:13:00,
2013-08-12 15:18:00,88.1,71.0,29.98,North,360,0.0,11.0,57,0.00,,---,0.00,VWS V14.01,2013-08-12 19:18:00,
2013-08-12 15:23:00,88.3,70.6,29.97,North,360,4.0,11.0,56,0.00,,---,0.00,VWS V14.01,2013-08-12 19:23:00,
2013-08-12 15:28:00,87.7,70.6,29.97,North,360,0.0,11.0,57,0.00,,---,0.00,VWS V14.01,2013-08-12 19:28:00,
2013-08-12 15:33:00,87.9,70.8,29.97,North,360,0.0,11.0,57,0.00,,---,0.00,VWS V14.01,2013-08-12 19:33:00,
2013-08-12 15:38:00,87.6,70.5,29.97,North,360,5.0,11.0,57,0.00,,---,0.00,VWS V14.01,2013-08-12 19:38:00,
2013-08-12 15:43:00,87.5,71.4,29.97,North,360,4.0,11.0,59,0.00,,---,0.00,VWS V14.01,2013-08-12 19:43:00,
2013-08-12 15:48:00,88.2,71.6,29.97,North,360,4.0,11.0,58,0.00,,---,0.00,VWS V14.01,2013-08-12 19:48:00,
2013-08-12 15:53:00,88.4,71.2,29.96,North,360,0.0,11.0,57,0.00,,---,0.00,VWS V14.01,2013-08-12 19:53:00,
2013-08-12 15:58:00,88.8,71.1,29.96,North,360,0.0,11.0,56,0.00,,---,0.00,VWS V14.01,2013-08-12 19:58:00,
2013-08-12 16:03:00,88.6,71.9,29.96,North,360,5.0,9.0,58,0.00,,---,0.00,VWS V14.01,2013-08-12 20:03:00,
2013-08-12 16:09:00,87.7,71.6,29.96,North,360,3.0,9.0,59,0.00,,---,0.00,VWS V14.01,2013-08-12 20:09:00,
2013-08-12 16:14:00,87.6,71.5,29.96,North,360,2.0,9.0,59,0.00,,---,0.00,VWS V14.01,2013-08-12 20:14:00,
2013-08-12 16:19:00,87.8,71.7,29.96,North,360,4.0,9.0,59,0.00,,---,0.00,VWS V14.01,2013-08-12 20:19:00,
2013-08-12 16:24:00,87.4,71.3,29.96,North,360,5.0,9.0,59,0.00,,---,0.00,VWS V14.01,2013-08-12 20:24:00,
2013-08-12 16:29:00,87.0,71.9,29.96,North,360,1.0,9.0,61,0.00,,---,0.00,VWS V14.01,2013-08-12 20:29:00,
2013-08-12 16:34:00,86.9,71.8,29.96,North,360,2.0,9.0,61,0.00,,---,0.00,VWS V14.01,2013-08-12 20:34:00,
2013-08-12 16:39:00,86.9,72.8,29.96,North,360,2.0,9.0,63,0.00,,---,0.00,VWS V14.01,2013-08-12 20:39:00,
2013-08-12 16:44:00,86.8,72.2,29.95,North,360,2.0,9.0,62,0.00,,---,0.00,VWS V14.01,2013-08-12 20:44:00,
2013-08-12 16:49:00,86.6,72.0,29.95,North,360,4.0,9.0,62,0.00,,---,0.00,VWS V14.01,2013-08-12 20:49:00,
2013-08-12 16:54:00,86.3,72.7,29.96,North,360,4.0,9.0,64,0.00,,---,0.00,VWS V14.01,2013-08-12 20:54:00,
2013-08-12 16:59:00,86.1,73.0,29.96,North,360,5.0,9.0,65,0.00,,---,0.00,VWS V14.01,2013-08-12 20:59:00,
2013-08-12 17:04:00,85.9,73.2,29.96,North,360,3.0,4.0,66,0.00,,---,0.00,VWS V14.01,2013-08-12 21:04:00,
2013-08-12 17:09:00,85.7,73.5,29.96,North,360,2.0,4.0,67,0.00,,---,0.00,VWS V14.01,2013-08-12 21:09:00,
2013-08-12 17:15:00,85.4,74.1,29.96,North,360,2.0,4.0,69,0.00,,---,0.00,VWS V14.01,2013-08-12 21:15:00,
2013-08-12 17:20:00,85.2,73.9,29.96,North,360,3.0,4.0,69,0.00,,---,0.00,VWS V14.01,2013-08-12 21:20:00,
2013-08-12 17:25:00,85.0,73.7,29.95,North,360,3.0,4.0,69,0.00,,---,0.00,VWS V14.01,2013-08-12 21:25:00,
2013-08-12 17:30:00,84.8,73.9,29.96,North,360,3.0,4.0,70,0.00,,---,0.00,VWS V14.01,2013-08-12 21:30:00,
2013-08-12 17:35:00,84.7,74.3,29.95,North,360,2.0,5.0,71,0.00,,---,0.00,VWS V14.01,2013-08-12 21:35:00,
2013-08-12 17:40:00,84.4,74.4,29.95,North,360,3.0,5.0,72,0.00,,---,0.00,VWS V14.01,2013-08-12 21:40:00,
2013-08-12 17:45:00,84.0,74.4,29.95,North,360,5.0,5.0,73,0.00,,---,0.00,VWS V14.01,2013-08-12 21:45:00,
2013-08-12 17:50:00,83.7,74.5,29.95,North,360,5.0,5.0,74,0.00,,---,0.00,VWS V14.01,2013-08-12 21:50:00,
2013-08-12 17:55:00,83.5,74.3,29.95,North,360,2.0,5.0,74,0.00,,---,0.00,VWS V14.01,2013-08-12 21:55:00,
2013-08-12 18:00:00,83.4,74.7,29.95,North,360,3.0,5.0,75,0.00,,---,0.00,VWS V14.01,2013-08-12 22:00:00,
2013-08-12 18:05:00,83.1,74.8,29.95,North,360,3.0,5.0,76,0.00,,---,0.00,VWS V14.01,2013-08-12 22:05:00,
2013-08-12 18:10:00,83.0,73.9,29.95,North,360,3.0,5.0,74,0.00,,---,0.00,VWS V14.01,2013-08-12 22:10:00,
2013-08-12 18:16:00,83.0,73.9,29.95,North,360,3.0,5.0,74,0.00,,---,0.00,VWS V14.01,2013-08-12 22:16:00,
2013-08-12 18:21:00,83.0,73.9,29.95,North,360,4.0,5.0,74,0.00,,---,0.00,VWS V14.01,2013-08-12 22:21:00,
2013-08-12 18:26:00,82.9,74.2,29.95,North,360,2.0,5.0,75,0.00,,---,0.00,VWS V14.01,2013-08-12 22:26:00,
2013-08-12 18:31:00,82.9,74.2,29.94,North,360,0.0,5.0,75,0.00,,---,0.00,VWS V14.01,2013-08-12 22:31:00,
2013-08-12 18:36:00,83.0,73.5,29.94,North,360,2.0,5.0,73,0.00,,---,0.00,VWS V14.01,2013-08-12 22:36:00,
2013-08-12 18:41:00,83.0,73.5,29.95,North,360,6.0,6.0,73,0.00,,---,0.00,VWS V14.01,2013-08-12 22:41:00,
2013-08-12 18:46:00,83.0,73.5,29.94,North,360,1.0,6.0,73,0.00,,---,0.00,VWS V14.01,2013-08-12 22:46:00,
2013-08-12 18:51:00,83.0,73.5,29.94,North,360,2.0,6.0,73,0.00,,---,0.00,VWS V14.01,2013-08-12 22:51:00,
2013-08-12 18:56:00,83.1,73.1,29.94,North,360,2.0,6.0,72,0.00,,---,0.00,VWS V14.01,2013-08-12 22:56:00,
2013-08-12 19:01:00,83.2,73.2,29.94,North,360,2.0,6.0,72,0.00,,---,0.00,VWS V14.01,2013-08-12 23:01:00,
2013-08-12 19:06:00,83.2,74.8,29.94,North,360,3.0,4.0,76,0.00,,---,0.00,VWS V14.01,2013-08-12 23:06:00,
2013-08-12 19:11:00,83.0,75.4,29.94,North,360,1.0,4.0,78,0.00,,---,0.00,VWS V14.01,2013-08-12 23:11:00,
2013-08-12 19:16:00,82.6,74.7,29.94,North,360,2.0,4.0,77,0.00,,---,0.00,VWS V14.01,2013-08-12 23:16:00,
2013-08-12 19:21:00,82.2,74.3,29.94,North,360,1.0,4.0,77,0.00,,---,0.00,VWS V14.01,2013-08-12 23:21:00,
2013-08-12 19:26:00,81.9,74.0,29.94,North,360,4.0,4.0,77,0.00,,---,0.00,VWS V14.01,2013-08-12 23:26:00,
2013-08-12 19:31:00,81.6,74.5,29.94,North,360,5.0,6.0,79,0.00,,---,0.00,VWS V14.01,2013-08-12 23:31:00,
2013-08-12 19:36:00,81.4,74.6,29.94,North,360,4.0,7.0,80,0.00,,---,0.00,VWS V14.01,2013-08-12 23:36:00,
2013-08-12 19:41:00,80.9,75.3,29.94,North,360,8.0,10.0,83,0.00,,---,0.00,VWS V14.01,2013-08-12 23:41:00,
2013-08-12 19:46:00,80.2,74.9,29.94,North,360,5.0,10.0,84,0.00,,---,0.00,VWS V14.01,2013-08-12 23:46:00,
2013-08-12 19:52:00,79.7,74.8,29.94,North,360,10.0,11.0,85,0.00,,---,0.00,VWS V14.01,2013-08-12 23:52:00,
2013-08-12 19:57:00,79.2,74.7,29.94,North,360,5.0,11.0,86,0.00,,---,0.00,VWS V14.01,2013-08-12 23:57:00,
2013-08-12 20:02:00,78.9,74.4,29.94,North,360,4.0,11.0,86,0.00,,---,0.00,VWS V14.01,2013-08-13 00:02:00,
2013-08-12 20:07:00,78.7,74.2,29.94,North,360,5.0,7.0,86,0.00,,---,0.00,VWS V14.01,2013-08-13 00:07:00,
2013-08-12 20:12:00,78.5,74.3,29.95,North,360,4.0,8.0,87,0.00,,---,0.00,VWS V14.01,2013-08-13 00:12:00,
2013-08-12 20:17:00,78.3,74.1,29.94,North,360,5.0,8.0,87,0.00,,---,0.00,VWS V14.01,2013-08-13 00:17:00,
2013-08-12 20:22:00,78.1,73.9,29.95,North,360,7.0,9.0,87,0.00,,---,0.00,VWS V14.01,2013-08-13 00:22:00,
2013-08-12 20:27:00,78.0,73.8,29.95,North,360,5.0,9.0,87,0.00,,---,0.00,VWS V14.01,2013-08-13 00:27:00,
2013-08-12 20:32:00,77.8,73.6,29.96,North,360,5.0,9.0,87,0.00,,---,0.00,VWS V14.01,2013-08-13 00:32:00,
2013-08-12 20:37:00,77.6,73.4,29.95,North,360,5.0,9.0,87,0.00,,---,0.00,VWS V14.01,2013-08-13 00:37:00,
2013-08-12 20:42:00,77.4,73.2,29.95,North,360,4.0,9.0,87,0.00,,---,0.00,VWS V14.01,2013-08-13 00:42:00,
2013-08-12 20:47:00,77.4,73.6,29.95,North,360,5.0,9.0,88,0.00,,---,0.00,VWS V14.01,2013-08-13 00:47:00,
2013-08-12 20:52:00,77.2,73.4,29.95,North,360,3.0,9.0,88,0.00,,---,0.00,VWS V14.01,2013-08-13 00:52:00,
2013-08-12 20:57:00,77.0,73.2,29.95,North,360,5.0,9.0,88,0.00,,---,0.00,VWS V14.01,2013-08-13 00:57:00,
2013-08-12 21:03:00,76.7,72.9,29.96,North,360,5.0,9.0,88,0.00,,---,0.00,VWS V14.01,2013-08-13 01:03:00,
2013-08-12 21:08:00,76.6,72.8,29.95,North,360,6.0,9.0,88,0.00,,---,0.00,VWS V14.01,2013-08-13 01:08:00,
2013-08-12 21:13:00,76.5,72.7,29.95,North,360,5.0,9.0,88,0.00,,---,0.00,VWS V14.01,2013-08-13 01:13:00,
2013-08-12 21:18:00,76.5,72.7,29.96,North,360,3.0,9.0,88,0.00,,---,0.00,VWS V14.01,2013-08-13 01:18:00,
2013-08-12 21:23:00,76.3,72.5,29.95,North,360,6.0,9.0,88,0.00,,---,0.00,VWS V14.01,2013-08-13 01:23:00,
2013-08-12 21:28:00,76.2,72.7,29.96,North,360,3.0,9.0,89,0.00,,---,0.00,VWS V14.01,2013-08-13 01:28:00,
2013-08-12 21:33:00,76.1,72.6,29.96,North,360,3.0,9.0,89,0.00,,---,0.00,VWS V14.01,2013-08-13 01:33:00,
2013-08-12 21:38:00,76.0,72.5,29.96,North,360,5.0,9.0,89,0.00,,---,0.00,VWS V14.01,2013-08-13 01:38:00,
2013-08-12 21:43:00,76.0,72.5,29.97,North,360,5.0,9.0,89,0.00,,---,0.00,VWS V14.01,2013-08-13 01:43:00,
2013-08-12 21:48:00,76.0,72.5,29.97,North,360,3.0,9.0,89,0.00,,---,0.00,VWS V14.01,2013-08-13 01:48:00,
2013-08-12 21:53:00,75.9,72.4,29.97,North,360,2.0,9.0,89,0.00,,---,0.00,VWS V14.01,2013-08-13 01:53:00,
2013-08-12 21:58:00,75.8,72.3,29.97,North,360,2.0,9.0,89,0.00,,---,0.00,VWS V14.01,2013-08-13 01:58:00,
2013-08-12 22:03:00,75.9,72.4,29.98,North,360,4.0,6.0,89,0.00,,---,0.00,VWS V14.01,2013-08-13 02:03:00,
2013-08-12 22:08:00,75.8,72.3,29.98,North,360,5.0,12.0,89,0.00,,---,0.00,VWS V14.01,2013-08-13 02:08:00,
2013-08-12 22:13:00,75.8,72.0,29.98,North,360,6.0,12.0,88,0.00,,---,0.00,VWS V14.01,2013-08-13 02:13:00,
2013-08-12 22:18:00,75.8,72.0,29.98,North,360,9.0,18.0,88,0.00,,---,0.00,VWS V14.01,2013-08-13 02:18:00,
2013-08-12 22:23:00,75.3,71.8,29.98,North,360,8.0,18.0,89,0.00,,---,0.00,VWS V14.01,2013-08-13 02:23:00,
2013-08-12 22:28:00,74.7,71.6,29.99,North,360,4.0,18.0,90,0.00,,---,0.00,VWS V14.01,2013-08-13 02:28:00,
2013-08-12 22:33:00,74.3,71.5,30.00,North,360,3.0,18.0,91,0.00,,---,0.00,VWS V14.01,2013-08-13 02:33:00,
2013-08-12 22:38:00,74.1,71.3,29.99,North,360,5.0,18.0,91,0.01,,---,0.01,VWS V14.01,2013-08-13 02:38:00,
2013-08-12 22:43:00,73.8,71.3,29.98,North,360,3.0,18.0,92,0.03,,---,0.03,VWS V14.01,2013-08-13 02:43:00,
2013-08-12 22:48:00,73.6,71.5,29.98,North,360,5.0,18.0,93,0.05,,---,0.05,VWS V14.01,2013-08-13 02:48:00,
2013-08-12 22:53:00,73.4,71.3,29.97,North,360,7.0,18.0,93,0.08,,---,0.08,VWS V14.01,2013-08-13 02:53:00,
2013-08-12 22:59:00,73.1,71.0,29.97,North,360,3.0,18.0,93,0.11,,---,0.11,VWS V14.01,2013-08-13 02:59:00,
2013-08-12 23:04:00,72.8,71.0,29.96,North,360,7.0,9.0,94,0.14,,---,0.14,VWS V14.01,2013-08-13 03:04:00,
2013-08-12 23:09:00,72.6,70.8,29.96,North,360,5.0,9.0,94,0.16,,---,0.16,VWS V14.01,2013-08-13 03:09:00,
2013-08-12 23:14:00,72.7,70.9,29.97,North,360,2.0,9.0,94,0.19,,---,0.19,VWS V14.01,2013-08-13 03:14:00,
2013-08-12 23:19:00,72.5,70.7,29.97,North,360,5.0,9.0,94,0.21,,---,0.21,VWS V14.01,2013-08-13 03:19:00,
2013-08-12 23:24:00,72.6,71.1,29.97,North,360,9.0,9.0,95,0.23,,---,0.23,VWS V14.01,2013-08-13 03:24:00,
2013-08-12 23:29:00,72.4,70.9,29.96,North,360,6.0,9.0,95,0.24,,---,0.24,VWS V14.01,2013-08-13 03:29:00,
2013-08-12 23:34:00,72.1,70.3,29.95,North,360,3.0,9.0,94,0.24,,---,0.24,VWS V14.01,2013-08-13 03:34:00,
2013-08-12 23:39:00,72.0,70.5,29.95,North,360,2.0,9.0,95,0.24,,---,0.24,VWS V14.01,2013-08-13 03:39:00,
2013-08-12 23:44:00,71.9,70.4,29.95,North,360,2.0,9.0,95,0.25,,---,0.25,VWS V14.01,2013-08-13 03:44:00,
2013-08-12 23:52:00,71.8,70.3,29.95,North,360,0.0,9.0,95,0.25,,---,0.25,VWS V14.01,2013-08-13 03:52:00,
2013-08-12 23:58:00,71.8,70.3,29.94,North,360,0.0,9.0,95,0.25,,---,0.25,VWS V14.01,2013-08-13 03:58:00,